Louisa, VA

7:19 PM EST on December 15, 2019 (GMT -0500)
Louisa County-Freeman

Weather History for KLKU - September, 2019

Change the Weather History Date:

Saturday, September 21, 2019

  Actual Average (WUND) Record (WUND)
Temperature  
Mean Temperature 68 °F -  
Max Temperature 86 °F - - (-1)
Min Temperature 51 °F - - (-1)
Cooling Degree Days 4    
Growing Degree Days 18 (Base 50)    
Moisture  
Dew Point 59 °F    
Average Humidity 70    
Maximum Humidity 97    
Minimum Humidity 43    
Precipitation  
Precipitation 0.00 in - - ()
Sea Level Pressure  
Sea Level Pressure 30.26 in    
Wind  
Wind Speed 3 mph ()    
Max Wind Speed 6 mph    
Max Gust Speed -    
Visibility 10.0 miles    
Events      
Averages and records for this station are not official NWS values.
T = Trace of Precipitation, MM = Missing Value Source: Averaged Metar Reports

Daily Weather History Graph

Daily Weather History Graph

Search for Another Location

Airport or City:

Astronomy

Sep. 21, 2019 Rise Set
Actual Time 6:58 AM EDT 7:10 PM EDT
Civil Twilight 6:32 AM EDT 7:37 PM EDT
Nautical Twilight 6:01 AM EDT 8:07 PM EDT
Astronomical Twilight 5:30 AM EDT 8:38 PM EDT
Moon 11:53 PM EDT (9/21) 1:56 PM EDT (9/21)
Length of Visible Light 13h 04m
Length of Day
12h 12m
Waning Gibbous, 55% of the Moon is Illuminated
Sep 21
Waning Gibbous
Sep 21
Last Quarter
Sep 28
New
Oct 5
First Quarter
Oct 13
Full

Hourly Weather History & Observations

Time (EDT) Temp. Heat Index Dew Point Humidity Pressure Visibility Wind Dir Wind Speed Gust Speed Precip Events Conditions
12:15 AM 59.5 °F - 52.9 °F 79% 30.30 in 10.0 mi South 3.5 mph - N/A   Clear
12:35 AM 59.2 °F - 52.9 °F 80% 30.30 in 10.0 mi South 4.6 mph - N/A   Clear
12:55 AM 59.4 °F - 52.7 °F 79% 30.30 in 10.0 mi Calm Calm - N/A   Clear
1:15 AM 58.5 °F - 52.5 °F 81% 30.30 in 10.0 mi SSW 3.5 mph - N/A   Clear
1:30 AM 59.5 °F - 52.5 °F 78% 30.30 in 10.0 mi SSW 4.6 mph - N/A   Scattered Clouds
1:50 AM 59.9 °F - 52.3 °F 76% 30.29 in 10.0 mi SW 3.5 mph - N/A   Scattered Clouds
2:15 AM 59.5 °F - 52.3 °F 77% 30.29 in 10.0 mi SW 4.6 mph - N/A   Clear
2:30 AM 59.2 °F - 52.3 °F 78% 30.29 in 10.0 mi SSW 3.5 mph - N/A   Clear
2:55 AM 58.8 °F - 52.2 °F 79% 30.29 in 10.0 mi Calm Calm - N/A   Clear
3:15 AM 59.2 °F - 52.3 °F 78% 30.28 in 10.0 mi SSW 4.6 mph - N/A   Clear
3:30 AM 59.4 °F - 52.2 °F 77% 30.28 in 10.0 mi SSW 3.5 mph - N/A   Clear
3:55 AM 58.8 °F - 52.3 °F 79% 30.27 in 10.0 mi Calm Calm - N/A   Clear
4:15 AM 58.6 °F - 52.2 °F 79% 30.27 in 10.0 mi SSW 3.5 mph - N/A   Clear
4:50 AM 59.0 °F - 52.3 °F 79% 30.27 in 10.0 mi Calm Calm - N/A   Clear
5:15 AM 57.9 °F - 52.3 °F 82% 30.28 in 10.0 mi Calm Calm - N/A   Clear
5:35 AM 55.0 °F - 52.2 °F 90% 30.28 in 10.0 mi Calm Calm - N/A   Clear
5:55 AM 53.8 °F - 52.0 °F 94% 30.28 in 10.0 mi Calm Calm - N/A   Clear
6:15 AM 52.7 °F - 51.4 °F 95% 30.29 in 10.0 mi Calm Calm - N/A   Clear
6:35 AM 52.5 °F - 51.3 °F 95% 30.29 in 10.0 mi Calm Calm - N/A   Clear
6:55 AM 51.8 °F - 50.9 °F 97% 30.30 in 10.0 mi SW 3.5 mph - N/A   Clear
7:15 AM 52.0 °F - 50.9 °F 96% 30.30 in 10.0 mi Calm Calm - N/A   Clear
7:35 AM 53.8 °F - 52.5 °F 95% 30.30 in 10.0 mi Calm Calm - N/A   Clear
7:50 AM 56.3 °F - 54.1 °F 92% 30.30 in 10.0 mi Calm Calm - N/A   Clear
8:15 AM 60.1 °F - 54.1 °F 81% 30.31 in 10.0 mi Calm Calm - N/A   Clear
8:35 AM 61.7 °F - 54.9 °F 78% 30.31 in 10.0 mi Calm Calm - N/A   Clear
8:50 AM 62.4 °F - 54.9 °F 76% 30.31 in 10.0 mi SW 4.6 mph - N/A   Clear
9:15 AM 64.0 °F - 55.8 °F 74% 30.32 in 10.0 mi WSW 4.6 mph - N/A   Clear
9:35 AM 65.5 °F - 56.5 °F 73% 30.31 in 10.0 mi SW 3.5 mph - N/A   Clear
9:55 AM 67.6 °F - 57.6 °F 70% 30.31 in 10.0 mi Calm Calm - N/A   Clear
10:15 AM 70.0 °F - 58.5 °F 67% 30.31 in 10.0 mi WSW 3.5 mph - N/A   Clear
10:35 AM 72.3 °F - 59.7 °F 64% 30.31 in 10.0 mi Calm Calm - N/A   Clear
10:55 AM 74.7 °F - 61.0 °F 62% 30.30 in 10.0 mi Calm Calm - N/A   Clear
11:15 AM 76.1 °F - 61.9 °F 61% 30.30 in 10.0 mi SSE 4.6 mph - N/A   Clear
11:35 AM 78.1 °F - 62.6 °F 59% 30.30 in 10.0 mi WSW 3.5 mph - N/A   Clear
11:55 AM 79.3 °F - 62.8 °F 57% 30.29 in 10.0 mi West 4.6 mph - N/A   Clear
12:15 PM 79.9 °F - 62.2 °F 55% 30.29 in 10.0 mi WSW 4.6 mph - N/A   Clear
12:35 PM 81.3 °F 82.7 °F 63.5 °F 55% 30.28 in 10.0 mi WSW 4.6 mph - N/A   Clear
12:55 PM 82.6 °F 83.6 °F 63.0 °F 51% 30.28 in 10.0 mi Calm Calm - N/A   Clear
1:15 PM 83.3 °F 84.4 °F 63.5 °F 51% 30.27 in 10.0 mi WSW 5.8 mph - N/A   Clear
1:35 PM 84.2 °F 85.2 °F 63.0 °F 49% 30.26 in 10.0 mi SW 5.8 mph - N/A   Clear
1:55 PM 85.1 °F 85.9 °F 62.6 °F 47% 30.25 in 10.0 mi West 4.6 mph - N/A   Clear
2:15 PM 84.6 °F 85.0 °F 61.9 °F 46% 30.25 in 10.0 mi Calm Calm - N/A   Clear
2:35 PM 85.1 °F 85.7 °F 62.4 °F 46% 30.24 in 10.0 mi Calm Calm - N/A   Clear
2:55 PM 86.0 °F 86.6 °F 62.6 °F 45% 30.24 in 10.0 mi East 3.5 mph - N/A   Clear
3:15 PM 86.7 °F 87.5 °F 63.1 °F 45% 30.23 in 10.0 mi WSW 3.5 mph - N/A   Clear
3:35 PM 86.7 °F 87.5 °F 63.1 °F 45% 30.22 in 10.0 mi South 3.5 mph - N/A   Clear
3:55 PM 86.7 °F 87.3 °F 62.6 °F 44% 30.21 in 10.0 mi ESE 4.6 mph - N/A   Clear
4:15 PM 86.9 °F 87.2 °F 62.2 °F 43% 30.21 in 10.0 mi Calm Calm - N/A   Clear
4:35 PM 85.8 °F 86.6 °F 63.1 °F 46% 30.20 in 10.0 mi SSE 4.6 mph - N/A   Clear
4:55 PM 86.2 °F 87.1 °F 63.0 °F 46% 30.20 in 10.0 mi SE 4.6 mph - N/A   Clear
5:15 PM 85.5 °F 86.6 °F 63.5 °F 48% 30.20 in 10.0 mi South 4.6 mph - N/A   Clear
5:35 PM 84.9 °F 86.1 °F 64.0 °F 49% 30.20 in 10.0 mi SSE 4.6 mph - N/A   Clear
5:55 PM 84.0 °F 85.6 °F 64.4 °F 52% 30.20 in 10.0 mi SSE 3.5 mph - N/A   Clear
6:15 PM 82.6 °F 84.9 °F 66.2 °F 58% 30.20 in 10.0 mi Calm Calm - N/A   Clear
6:35 PM 80.6 °F 82.4 °F 65.3 °F 59% 30.20 in 10.0 mi SE 4.6 mph - N/A   Clear
6:55 PM 77.5 °F - 66.0 °F 68% 30.21 in 10.0 mi SE 3.5 mph - N/A   Clear
7:15 PM 73.0 °F - 66.9 °F 81% 30.21 in 10.0 mi SE 3.5 mph - N/A   Clear
7:35 PM 72.9 °F - 65.7 °F 78% 30.20 in 10.0 mi SE 3.5 mph - N/A   Scattered Clouds
7:55 PM 70.9 °F - 65.1 °F 82% 30.21 in 10.0 mi SE 3.5 mph - N/A   Clear
8:15 PM 70.3 °F - 64.4 °F 81% 30.21 in 10.0 mi SE 4.6 mph - N/A   Clear
8:35 PM 70.3 °F - 63.9 °F 80% 30.21 in 10.0 mi SE 3.5 mph - N/A   Clear
8:55 PM 68.2 °F - 64.0 °F 87% 30.22 in 10.0 mi SE 3.5 mph - N/A   Clear
9:15 PM 67.6 °F - 63.5 °F 87% 30.22 in 10.0 mi SE 4.6 mph - N/A   Clear
9:35 PM 67.1 °F - 63.0 °F 87% 30.22 in 7.0 mi SSE 4.6 mph - N/A   Clear
9:55 PM 70.5 °F - 61.9 °F 74% 30.24 in 10.0 mi SE 5.8 mph - N/A   Scattered Clouds
10:15 PM 73.6 °F - 61.9 °F 67% 30.24 in 10.0 mi SE 5.8 mph - N/A   Mostly Cloudy
10:35 PM 73.0 °F - 62.6 °F 70% 30.24 in 10.0 mi SSE 4.6 mph - N/A   Scattered Clouds
10:55 PM 72.3 °F - 63.1 °F 73% 30.24 in 10.0 mi SSE 5.8 mph - N/A   Mostly Cloudy
11:15 PM 72.1 °F - 63.3 °F 74% 30.25 in 10.0 mi South 4.6 mph - N/A   Mostly Cloudy
11:35 PM 71.8 °F - 63.3 °F 75% 30.24 in 10.0 mi SE 4.6 mph - N/A   Scattered Clouds
11:55 PM 70.9 °F - 63.3 °F 77% 30.24 in 10.0 mi SSE 4.6 mph - N/A   Clear